Location: Palombina Nuova
(43.6167°N, 13.4000°E)
Time: 15:31:14
(UTC+00:00)

USA 215 - Pass Details

Date: 17 February 2020
Orbit: 1098 x 1110 km, 123.0° (Epoch: 08 March)

Event Time Altitude Azimuth Distance (km) Brightness Sun altitude
Rises 03:11:16 0° 53° (NE) 3,922 7.1 -31.6°
Reaches altitude 10° 03:13:58 10° 44° (NE) 2,965 6.2 -31.1°
Maximum altitude 03:19:41 34° 343° (NNW) 1,739 4.2 -30.1°
Enters shadow 03:20:00 34° 338° (NNW) 1,744 4.2 -30.1°
